When you browse on this site, cookies collect data to enhance your experience and personalize the content and advertising you see.
Visit our Privacy Policy to learn more. By continuing to use the site, you agree to this use of cookies and data.

Hourly Weather Parakou

Today, 6 July, Monday

Time Temperature Precipitation Wind Pressure Humidity
00:00 +24°C° 0.4 mm 1 mps 728 mmHg 93%
01:00 +24°C° 0 mm 1 mps 727 mmHg 94%
02:00 +24°C° 0 mm 1 mps 727 mmHg 94%
03:00 +24°C° 0 mm 1 mps 726 mmHg 95%
04:00 +24°C° 0 mm 1 mps 727 mmHg 95%
05:00 +24°C° 0 mm 1 mps 727 mmHg 95%
06:00 +23°C° 0 mm 1 mps 727 mmHg 96%
07:00 +25°C° 0 mm 1 mps 728 mmHg 89%
08:00 +27°C° 0 mm 2 mps 728 mmHg 82%
09:00 +28°C° 0 mm 2 mps 728 mmHg 75%
10:00 +29°C° 0 mm 2 mps 728 mmHg 70%
11:00 +31°C° 0 mm 2 mps 728 mmHg 64%
12:00 +32°C° 0 mm 2 mps 727 mmHg 59%
13:00 +32°C° 0 mm 2 mps 727 mmHg 58%
14:00 +34°C° 0 mm 2 mps 726 mmHg 58%
15:00 +34°C° 0 mm 2 mps 725 mmHg 57%
16:00 +32°C° 0 mm 2 mps 725 mmHg 64%
17:00 +30°C° 0 mm 2 mps 725 mmHg 70%
18:00 +29°C° 0 mm 2 mps 725 mmHg 77%
19:00 +28°C° 0 mm 2 mps 726 mmHg 79%
20:00 +28°C° 0 mm 2 mps 726 mmHg 82%
21:00 +27°C° 0 mm 2 mps 727 mmHg 85%
22:00 +26°C° 0.1 mm 2 mps 727 mmHg 86%
23:00 +26°C° 0.1 mm 2 mps 727 mmHg 88%

Tomorrow, 7 July, Tuesday

Time Temperature Precipitation Wind Pressure Humidity
00:00 +26°C° 0.1 mm 2 mps 726 mmHg 89%
01:00 +25°C° 0 mm 2 mps 726 mmHg 90%
02:00 +25°C° 0 mm 2 mps 726 mmHg 92%
03:00 +25°C° 0 mm 2 mps 725 mmHg 94%
04:00 +24°C° 0 mm 2 mps 725 mmHg 93%
05:00 +24°C° 0 mm 3 mps 726 mmHg 93%
06:00 +24°C° 0 mm 3 mps 726 mmHg 93%
07:00 +26°C° 0 mm 3 mps 726 mmHg 88%
08:00 +27°C° 0 mm 3 mps 727 mmHg 83%
09:00 +28°C° 0 mm 3 mps 727 mmHg 78%
10:00 +28°C° 0 mm 3 mps 727 mmHg 77%
11:00 +29°C° 0 mm 3 mps 727 mmHg 75%
12:00 +29°C° 0 mm 3 mps 726 mmHg 74%
13:00 +30°C° 0 mm 3 mps 726 mmHg 72%
14:00 +30°C° 0 mm 2 mps 725 mmHg 71%
15:00 +31°C° 0 mm 2 mps 724 mmHg 69%
16:00 +30°C° 0.2 mm 2 mps 725 mmHg 74%
17:00 +29°C° 0.2 mm 2 mps 725 mmHg 78%
18:00 +28°C° 0.2 mm 2 mps 725 mmHg 82%
19:00 +27°C° 1.6 mm 2 mps 726 mmHg 86%
20:00 +26°C° 1.6 mm 2 mps 726 mmHg 89%
21:00 +25°C° 1.6 mm 2 mps 726 mmHg 92%
22:00 +25°C° 0 mm 3 mps 726 mmHg 94%
23:00 +25°C° 0 mm 3 mps 726 mmHg 95%

Day after tomorrow, 8 July, Wednesday

Time Temperature Precipitation Wind Pressure Humidity
00:00 +24°C° 0 mm 3 mps 726 mmHg 96%
01:00 +24°C° 0 mm 3 mps 726 mmHg 95%
02:00 +23°C° 0 mm 4 mps 726 mmHg 95%
03:00 +23°C° 0 mm 4 mps 725 mmHg 94%
04:00 +23°C° 0 mm 4 mps 726 mmHg 94%
05:00 +24°C° 0 mm 3 mps 726 mmHg 93%
06:00 +24°C° 0 mm 3 mps 726 mmHg 93%
07:00 +24°C° 0 mm 3 mps 727 mmHg 92%
08:00 +24°C° 0 mm 3 mps 727 mmHg 91%
09:00 +24°C° 0 mm 3 mps 728 mmHg 91%
10:00 +26°C° 0 mm 3 mps 727 mmHg 84%
11:00 +27°C° 0 mm 3 mps 727 mmHg 78%
12:00 +29°C° 0 mm 3 mps 727 mmHg 72%
13:00 +29°C° 0 mm 3 mps 726 mmHg 71%
14:00 +30°C° 0 mm 2 mps 726 mmHg 71%
15:00 +30°C° 0 mm 2 mps 726 mmHg 70%
16:00 +29°C° 0.1 mm 2 mps 726 mmHg 75%
17:00 +28°C° 0.1 mm 2 mps 726 mmHg 80%
18:00 +27°C° 0.1 mm 2 mps 726 mmHg 84%
19:00 +26°C° 0 mm 2 mps 726 mmHg 85%
20:00 +26°C° 0 mm 2 mps 727 mmHg 86%
21:00 +26°C° 0 mm 2 mps 727 mmHg 86%
22:00 +25°C° 0 mm 2 mps 727 mmHg 88%
23:00 +25°C° 0 mm 2 mps 727 mmHg 89%

9 July, Thursday

Time Temperature Precipitation Wind Pressure Humidity
00:00 +25°C° 0 mm 2 mps 727 mmHg 91%
01:00 +25°C° 0 mm 2 mps 727 mmHg 91%
02:00 +25°C° 0 mm 2 mps 727 mmHg 90%
03:00 +24°C° 0 mm 2 mps 727 mmHg 90%
04:00 +24°C° 0.2 mm 2 mps 727 mmHg 91%
05:00 +24°C° 0.2 mm 3 mps 727 mmHg 91%
06:00 +24°C° 0.2 mm 3 mps 727 mmHg 92%
07:00 +25°C° 0 mm 3 mps 728 mmHg 87%
08:00 +26°C° 0 mm 3 mps 729 mmHg 83%
09:00 +27°C° 0 mm 4 mps 729 mmHg 78%
10:00 +28°C° 0 mm 3 mps 729 mmHg 75%
11:00 +29°C° 0 mm 3 mps 728 mmHg 72%
12:00 +30°C° 0 mm 3 mps 728 mmHg 68%
13:00 +30°C° 0.2 mm 3 mps 728 mmHg 66%
14:00 +31°C° 0.2 mm 3 mps 727 mmHg 65%
15:00 +31°C° 0.2 mm 2 mps 727 mmHg 63%
16:00 +30°C° 0 mm 2 mps 727 mmHg 68%
17:00 +29°C° 0 mm 2 mps 727 mmHg 73%
18:00 +28°C° 0 mm 2 mps 727 mmHg 78%
19:00 +27°C° 0 mm 2 mps 727 mmHg 80%
20:00 +26°C° 0 mm 2 mps 727 mmHg 82%
21:00 +25°C° 0 mm 2 mps 728 mmHg 84%
22:00 +25°C° 0 mm 2 mps 728 mmHg 85%
23:00 +25°C° 0 mm 2 mps 728 mmHg 86%

10 July, Friday

Time Temperature Precipitation Wind Pressure Humidity
00:00 +24°C° 0 mm 1 mps 728 mmHg 88%
01:00 +24°C° 0 mm 2 mps 728 mmHg 89%
02:00 +24°C° 0 mm 2 mps 728 mmHg 90%
03:00 +24°C° 0 mm 2 mps 728 mmHg 90%
04:00 +23°C° 0.3 mm 2 mps 728 mmHg 92%
05:00 +23°C° 0.3 mm 1 mps 728 mmHg 93%
06:00 +23°C° 0.3 mm 1 mps 728 mmHg 94%
07:00 +24°C° 0.2 mm 2 mps 728 mmHg 88%
08:00 +26°C° 0.2 mm 2 mps 729 mmHg 83%
09:00 +27°C° 0.2 mm 2 mps 729 mmHg 78%
10:00 +28°C° 0 mm 2 mps 729 mmHg 75%
11:00 +28°C° 0 mm 2 mps 729 mmHg 73%
12:00 +29°C° 0 mm 2 mps 728 mmHg 71%
13:00 +29°C° 1 mm 2 mps 728 mmHg 73%
14:00 +29°C° 1 mm 2 mps 727 mmHg 75%
15:00 +28°C° 1 mm 2 mps 727 mmHg 78%
16:00 +27°C° 0.5 mm 2 mps 727 mmHg 82%
17:00 +26°C° 0.5 mm 1 mps 727 mmHg 87%
18:00 +25°C° 0.5 mm 1 mps 727 mmHg 91%
19:00 +25°C° 0 mm 1 mps 727 mmHg 93%
20:00 +24°C° 0 mm 1 mps 727 mmHg 95%
21:00 +24°C° 0 mm 1 mps 727 mmHg 97%
22:00 +24°C° 0 mm 1 mps 728 mmHg 97%
23:00 +24°C° 0 mm 1 mps 728 mmHg 97%

11 July, Saturday

Time Temperature Precipitation Wind Pressure Humidity
00:00 +21°C° 0 mm 0 mps 728 mmHg 98%
01:00 +21°C° 0.1 mm 0 mps 728 mmHg 97%
02:00 +24°C° 0.1 mm 1 mps 728 mmHg 96%
03:00 +24°C° 0.1 mm 1 mps 727 mmHg 96%
04:00 +23°C° 1 mm 1 mps 728 mmHg 96%
05:00 +23°C° 1 mm 1 mps 728 mmHg 97%
06:00 +23°C° 1 mm 1 mps 728 mmHg 97%
07:00 +24°C° 0.8 mm 1 mps 729 mmHg 97%
08:00 +24°C° 0.8 mm 1 mps 729 mmHg 96%
09:00 +24°C° 0.8 mm 1 mps 729 mmHg 95%
10:00 +25°C° 0.9 mm 2 mps 729 mmHg 91%
11:00 +26°C° 0.9 mm 2 mps 729 mmHg 87%
12:00 +27°C° 0.9 mm 2 mps 729 mmHg 82%
13:00 +27°C° 0.6 mm 2 mps 728 mmHg 83%
14:00 +27°C° 0.6 mm 2 mps 728 mmHg 83%
15:00 +27°C° 0.6 mm 2 mps 727 mmHg 83%
16:00 +27°C° 0.2 mm 2 mps 727 mmHg 85%
17:00 +26°C° 0.2 mm 2 mps 727 mmHg 88%
18:00 +25°C° 0.2 mm 2 mps 727 mmHg 91%
19:00 +25°C° 0 mm 2 mps 727 mmHg 93%
20:00 +24°C° 0 mm 2 mps 728 mmHg 95%
21:00 +24°C° 0 mm 1 mps 728 mmHg 97%
22:00 +23°C° 0 mm 1 mps 728 mmHg 97%
23:00 +23°C° 0 mm 1 mps 728 mmHg 97%
Show more